星链-31532 (STARLINK-31532 )

导读 | 星芒AI

STARLINK-31532 是 SpaceX 星链计划中的一颗低轨通信卫星,属于星链第三代(v1.5)批次。该卫星于2023年发射,旨在为全球提供高速互联网服务。它运行在约550公里高的近地轨道,具备先进的相控阵天线和激光通信技术,以提升网络连接的稳定性和效率。作为星链星座的一部分,STARLINK-31532 在改善偏远地区网络覆盖、支持应急通信和推动全球宽带普及方面发挥着重要作用。

基本信息
目录编号:
59349
目录名称:
STARLINK-31532
国际标识:
2024-060B
轨道中心:
EARTH
卫星名称:
星链-31532
卫星全名:
星链-31532 (STARLINK-31532 )
卫星状态:
在轨 (已飞行581 天)
发射日期:
2024-03-31 UTC
国别 :
美国 (US)
星等 :
--
轨道信息
数据来源 国际轨道数据
星历时间: 2025-11-01T22:28:31+0800
19小时前
查看轨道信息
半长轴: 6861.2km
偏心率: 0.0001146
轨道倾角: 43.004°
近地点辐角 272.840°
升交点赤经 263.228°
平近点角 87.233°
近地点: 482.278km
远地点: 483.852km
周期: 94.267分钟
每日圈数: 15.275756
详细信息
固有亮度:
5
最大亮度:
0.3
卫星平台:
Starlink v2.0 mini
覆盖范围:
全球
运营商:
太空探索技术公司
运营商所在国:
美国
制造商(研发单位):
太空探索技术公司
制造商所在国:
美国
使用方式:
暂无
卫星简介
星链(Starlink)计划是由太空探索技术公司(SpaceX)提出的一个巨型低轨卫星互联网星座项目,计划在2019年至2024年间在太空搭建由约1.2万颗卫星组成的“星链”网络,其中1584颗将部署在地球上空550千米处的近地轨道,并从2020年开始工作。该卫星仍在工作。
2D轨道图
3D轨道图
轨道高度分析图
轨道倾角分析图
轨道综合分析图
查看轨道综合分析图